{"data":{"norad_id":52264,"intl_designator":"2022-041D","name":"STARLINK-3795","alt_names":[],"object_type":"PAYLOAD","status":"ACTIVE","operator":null,"country":"US","launch_date":"2022-04-21","launch_site_code":"AFETR","launch_vehicle":null,"mission":null,"orbit_class":"UNKNOWN","rcs_meters":null,"size_class":null,"mass_kg":null,"dimensions":null,"purposes":["comms"],"wikipedia_slug":null,"has_3d_model":false,"image_url":null,"decayed_at":null,"tle_current":{"epoch":"2026-05-25T05:10:21.639936Z","epoch_age_seconds":49577,"freshness":"FRESH","line1":"1 52264U 22041D   26145.21552824 -.00000178  00000+0  69277-5 0  9997","line2":"2 52264  53.2139 125.5818 0001325  80.6825 279.4317 15.08839232225917","mean_motion":15.08839232,"eccentricity":0.0001325,"inclination_deg":53.2139,"raan_deg":125.5818,"arg_perigee_deg":80.6825,"mean_anomaly_deg":279.4317,"bstar":6.9277e-6,"rev_number":22591,"period_min":95.437603255534,"perigee_km":538.82911697128,"apogee_km":540.66235589643,"semimajor_km":6917.8827364339,"source":"CELESTRAK","updated_at":"2026-05-25T13:38:17.080323Z"}}}